KK6LVQ-13 Weather Reports


time (UTC)temp
F
wind
direction
speed
knots
gust
knots
rain 1hr
in
rain 24hr
in
rain mn
in
humidity
%
barometer
mb
20260507070843 52 355 0.9 0.9 0.00 0.00 0.00 98 1024.6
20260507070342 52 331 0.9 1.7 0.00 0.00 0.00 98 1024.5
20260507065838 52 350 0.0 0.0 0.00 0.00 0.00 98 1024.8
20260507065335 52 339 0.9 1.7 0.00 0.00 0.00 98 1024.6
20260507064832 52 13 0.9 0.9 0.00 0.00 0.00 98 1024.5
20260507064330 52 332 1.7 1.7 0.00 0.00 0.00 98 1024.6
20260507063828 52 309 0.9 0.9 0.00 0.00 0.00 98 1024.5
20260507063324 52 23 0.9 0.9 0.00 0.00 0.00 98 1024.5
20260507062821 52 339 1.7 1.7 0.00 0.00 0.00 98 1024.5
20260507062318 52 284 0.0 0.9 0.00 0.00 0.00 98 1024.4
20260507061816 52 319 0.0 0.0 0.00 0.00 0.00 98 1024.6
20260507061314 52 115 0.0 0.0 0.00 0.00 0.00 97 1024.7
20260507060812 52 7 0.0 0.0 0.00 0.00 0.00 97 1024.5
20260507060309 52 206 0.0 0.0 0.00 0.00 0.00 97 1024.5
20260507055805 52 334 1.7 2.6 0.00 0.00 0.00 97 1024.5
20260507055300 52 9 0.0 0.0 0.00 0.00 0.00 97 1024.4
20260507054756 52 327 0.9 0.9 0.00 0.00 0.00 97 1024.4
20260507054253 52 36 0.0 0.9 0.00 0.00 0.00 97 1024.4
20260507053751 52 280 2.6 2.6 0.00 0.00 0.00 97 1024.5
20260507053248 52 349 1.7 1.7 0.00 0.00 0.00 97 1024.4
20260507052747 52 359 0.9 0.9 0.00 0.00 0.00 97 1024.6
20260507052243 52 355 0.9 1.7 0.00 0.00 0.00 97 1024.6
20260507051741 52 351 0.0 0.9 0.00 0.00 0.00 97 1024.7
20260507051238 52 320 1.7 2.6 0.00 0.00 0.00 97 1024.8
20260507050734 52 351 1.7 1.7 0.00 0.00 0.00 97 1024.5
20260507050232 53 353 0.9 0.9 0.00 0.00 0.00 97 1024.6
20260507045728 53 354 0.0 0.0 0.00 0.00 0.00 97 1024.8
20260507045224 53 6 1.7 1.7 0.00 0.00 0.00 97 1024.6
20260507044722 53 310 1.7 4.3 0.00 0.00 0.00 96 1024.7
20260507044218 53 186 0.0 0.9 0.00 0.00 0.00 96 1024.6
20260507043714 53 33 1.7 2.6 0.00 0.00 0.00 96 1024.5
20260507043211 53 59 0.0 0.0 0.00 0.00 0.00 96 1024.5
20260507042708 53 332 2.6 4.3 0.00 0.00 0.00 96 1024.5
20260507042203 53 3 0.9 0.9 0.00 0.00 0.00 96 1024.7
20260507041700 53 327 2.6 2.6 0.00 0.00 0.00 96 1024.7
20260507041156 53 4 1.7 1.7 0.00 0.00 0.00 96 1024.2
20260507040654 53 339 0.0 0.9 0.00 0.00 0.00 96 1024.4
20260507040150 53 34 0.0 0.9 0.00 0.00 0.00 95 1024.3
20260507035646 53 32 0.0 0.9 0.00 0.00 0.00 95 1024.4
20260507035142 53 353 0.0 0.0 0.00 0.00 0.00 95 1024.0
20260507034639 54 0 4.3 5.2 0.00 0.00 0.00 95 1024.1
20260507034137 54 247 1.7 1.7 0.00 0.00 0.00 95 1023.8
20260507033635 54 335 1.7 1.7 0.00 0.00 0.00 95 1024.1
20260507033132 54 286 0.9 1.7 0.00 0.00 0.00 95 1024.0
20260507032629 54 328 1.7 2.6 0.00 0.00 0.00 94 1023.8
20260507032125 54 0 0.9 0.9 0.00 0.00 0.00 94 1023.8
20260507031622 54 38 1.7 1.7 0.00 0.00 0.00 94 1023.8
20260507031119 55 10 2.6 4.3 0.00 0.00 0.00 94 1023.8
20260507030615 55 305 0.9 0.9 0.00 0.00 0.00 93 1023.7
20260507030113 55 66 0.0 0.9 0.00 0.00 0.00 93 1023.7
20260507025610 55 5 1.7 1.7 0.00 0.00 0.00 93 1023.5
20260507025107 55 332 3.5 4.3 0.00 0.00 0.00 92 1023.6
20260507024605 55 1 0.9 0.9 0.00 0.00 0.00 92 1023.6
20260507024102 56 23 3.5 4.3 0.00 0.00 0.00 91 1023.5
20260507023557 56 16 1.7 1.7 0.00 0.00 0.00 91 1023.4
20260507023055 56 302 2.6 2.6 0.00 0.00 0.00 90 1023.2
20260507022552 57 2 2.6 2.6 0.00 0.00 0.00 90 1023.3
20260507022046 57 16 2.6 4.3 0.00 0.00 0.00 88 1023.4
20260507021543 58 304 1.7 2.6 0.00 0.00 0.00 87 1023.2
20260507021040 58 337 2.6 4.3 0.00 0.00 0.00 86 1023.3
20260507020538 59 345 4.3 6.1 0.00 0.00 0.00 86 1023.2
20260507020034 59 302 4.3 6.1 0.00 0.00 0.00 85 1023.3
20260507015532 59 295 2.6 4.3 0.00 0.00 0.00 84 1023.3
20260507015029 61 347 2.6 2.6 0.00 0.00 0.00 82 1023.3
20260507014526 61 352 1.7 1.7 0.00 0.00 0.00 82 1023.2
20260507014021 61 249 2.6 2.6 0.00 0.00 0.00 81 1023.1
20260507013518 61 302 2.6 4.3 0.00 0.00 0.00 81 1023.1
20260507013016 62 323 3.5 5.2 0.00 0.00 0.00 80 1023.1
20260507012513 62 30 1.7 2.6 0.00 0.00 0.00 79 1023.1
20260507012009 62 326 2.6 2.6 0.00 0.00 0.00 79 1023.3
20260507011506 62 285 3.5 4.3 0.00 0.00 0.00 79 1023.1
20260507011002 62 351 3.5 4.3 0.00 0.00 0.00 79 1023.0
20260507010457 63 348 3.5 6.1 0.00 0.00 0.00 78 1023.2
20260507005954 63 307 4.3 7.0 0.00 0.00 0.00 77 1023.2
20260507005451 64 345 4.3 5.2 0.00 0.00 0.00 77 1022.9
20260507004947 64 299 4.3 6.1 0.00 0.00 0.00 76 1022.9
20260507004444 64 296 2.6 4.3 0.00 0.00 0.00 76 1022.9
20260507003942 64 329 6.1 7.0 0.00 0.00 0.00 75 1022.9
20260507003437 65 310 2.6 4.3 0.00 0.00 0.00 75 1022.7
20260507002932 65 345 2.6 2.6 0.00 0.00 0.00 74 1022.7
20260507002428 66 335 2.6 4.3 0.00 0.00 0.00 74 1022.8
20260507001920 66 319 4.3 6.1 0.00 0.00 0.00 73 1022.6
20260507001417 66 10 2.6 2.6 0.00 0.00 0.00 72 1022.8
20260507000914 67 323 3.5 5.2 0.00 0.00 0.00 71 1022.6
20260507000409 67 241 3.5 5.2 0.00 0.00 0.00 71 1022.7
20260506235905 67 342 5.2 7.0 0.00 0.00 0.00 71 1022.4
20260506235403 68 310 3.5 5.2 0.00 0.00 0.00 70 1022.3
20260506234858 68 306 6.1 7.0 0.00 0.00 0.00 70 1022.4
20260506234356 68 312 4.3 5.2 0.00 0.00 0.00 70 1022.2
20260506233854 68 329 4.3 5.2 0.00 0.00 0.00 69 1022.6
20260506233349 69 340 4.3 5.2 0.00 0.00 0.00 69 1022.4
20260506232846 68 273 3.5 4.3 0.00 0.00 0.00 69 1022.7
20260506232342 69 321 2.6 4.3 0.00 0.00 0.00 68 1022.7
20260506231833 69 313 4.3 5.2 0.00 0.00 0.00 68 1022.4
20260506231331 68 327 3.5 5.2 0.00 0.00 0.00 69 1022.6
20260506230828 69 346 2.6 2.6 0.00 0.00 0.00 69 1022.7
20260506230325 69 311 3.5 4.3 0.00 0.00 0.00 68 1022.6
20260506225821 69 264 5.2 7.8 0.00 0.00 0.00 67 1022.9
20260506225318 69 53 2.6 2.6 0.00 0.00 0.00 67 1022.9
20260506224815 69 295 6.1 7.0 0.00 0.00 0.00 67 1022.8
20260506224312 70 345 3.5 5.2 0.00 0.00 0.00 66 1022.7
20260506223809 70 345 4.3 4.3 0.00 0.00 0.00 66 1022.7
20260506223304 71 339 2.6 4.3 0.00 0.00 0.00 66 1022.9
20260506222801 71 356 7.0 7.8 0.00 0.00 0.00 65 1022.8
20260506222256 71 319 5.2 6.1 0.00 0.00 0.00 65 1022.9
20260506221755 71 341 3.5 6.1 0.00 0.00 0.00 64 1023.1
20260506221252 71 354 3.5 5.2 0.00 0.00 0.00 64 1022.9
20260506220749 72 286 6.1 7.0 0.00 0.00 0.00 63 1022.9
20260506220238 72 296 4.3 5.2 0.00 0.00 0.00 63 1023.0
20260506215736 73 324 5.2 7.0 0.00 0.00 0.00 62 1023.2
20260506215231 73 356 3.5 5.2 0.00 0.00 0.00 62 1023.2
20260506214728 73 340 1.7 1.7 0.00 0.00 0.00 63 1023.0
20260506214225 72 286 3.5 5.2 0.00 0.00 0.00 63 1023.3
20260506213723 73 281 2.6 2.6 0.00 0.00 0.00 62 1023.3
20260506213220 73 354 3.5 4.3 0.00 0.00 0.00 62 1023.2
20260506212717 73 336 4.3 5.2 0.00 0.00 0.00 60 1023.5
20260506212212 73 338 4.3 6.1 0.00 0.00 0.00 62 1023.6
20260506211708 74 346 3.5 4.3 0.00 0.00 0.00 62 1023.4
20260506211205 73 331 0.9 1.7 0.00 0.00 0.00 62 1023.5
20260506210702 72 293 1.7 1.7 0.00 0.00 0.00 60 1023.6
20260506210158 73 289 4.3 5.2 0.00 0.00 0.00 61 1023.7
20260506205656 73 57 3.5 4.3 0.00 0.00 0.00 63 1023.5
20260506205150 72 296 5.2 6.1 0.00 0.00 0.00 62 1023.7
20260506204648 73 290 2.6 2.6 0.00 0.00 0.00 61 1023.7
20260506204145 73 309 3.5 4.3 0.00 0.00 0.00 62 1023.7
20260506203643 73 306 2.6 2.6 0.00 0.00 0.00 62 1023.8
20260506203140 71 239 1.7 1.7 0.00 0.00 0.00 63 1023.9
20260506202638 73 267 3.5 4.3 0.00 0.00 0.00 62 1024.0
20260506202133 74 228 0.9 0.9 0.00 0.00 0.00 55 1023.9
20260506201631 72 18 0.9 0.9 0.00 0.00 0.00 57 1024.0
20260506201127 72 331 1.7 1.7 0.00 0.00 0.00 58 1024.0
20260506200624 73 188 0.9 1.7 0.00 0.00 0.00 56 1024.2
20260506200121 73 259 2.6 2.6 0.00 0.00 0.00 58 1024.1
20260506195617 72 199 0.0 0.9 0.00 0.00 0.00 61 1024.3
20260506195114 71 97 0.0 0.9 0.00 0.00 0.00 61 1024.3
20260506194611 71 284 1.7 1.7 0.00 0.00 0.00 60 1024.4
20260506194107 70 268 1.7 1.7 0.00 0.00 0.00 61 1024.3
20260506193605 70 283 0.9 0.9 0.00 0.00 0.00 59 1024.4
20260506193103 71 120 2.6 2.6 0.00 0.00 0.00 59 1024.5
20260506192559 70 58 0.9 1.7 0.00 0.00 0.00 65 1024.4
20260506192055 69 307 2.6 2.6 0.00 0.00 0.00 64 1024.5
20260506191551 69 149 0.0 0.0 0.00 0.00 0.00 62 1024.5
20260506191047 69 278 0.9 0.9 0.00 0.00 0.00 66 1024.7
20260506190545 68 159 0.0 0.0 0.00 0.00 0.00 67 1024.6
20260506190042 67 16 1.7 1.7 0.00 0.00 0.00 67 1024.6
20260506185539 68 268 2.6 2.6 0.00 0.00 0.00 66 1024.8
20260506185035 67 212 0.9 1.7 0.00 0.00 0.00 67 1024.8
20260506184533 67 83 2.6 2.6 0.00 0.00 0.00 67 1024.9
20260506184030 68 263 2.6 2.6 0.00 0.00 0.00 66 1024.9
20260506183525 68 76 0.9 0.9 0.00 0.00 0.00 64 1024.9
20260506183023 68 52 0.9 0.9 0.00 0.00 0.00 65 1024.8
20260506182520 69 320 0.0 0.9 0.00 0.00 0.00 64 1025.0
20260506182017 67 145 2.6 2.6 0.00 0.00 0.00 66 1025.0
20260506181515 67 359 0.9 0.9 0.00 0.00 0.00 66 1025.1
20260506181012 68 201 0.9 0.9 0.00 0.00 0.00 65 1025.0
20260506180508 68 112 0.9 0.9 0.00 0.00 0.00 65 1025.0
20260506180006 66 133 0.9 0.9 0.00 0.00 0.00 68 1025.0
20260506175502 65 78 1.7 1.7 0.00 0.00 0.00 70 1025.2
20260506174958 67 225 0.0 0.9 0.00 0.00 0.00 68 1025.1
20260506174456 66 93 0.9 1.7 0.00 0.00 0.00 68 1025.3
20260506173952 65 127 0.0 0.9 0.00 0.00 0.00 71 1025.1
20260506173450 64 60 1.7 1.7 0.00 0.00 0.00 73 1025.2
20260506172946 64 137 0.9 0.9 0.00 0.00 0.00 72 1025.0
20260506172444 63 23 0.9 0.9 0.00 0.00 0.00 75 1025.2
20260506171940 63 192 0.9 1.7 0.00 0.00 0.00 73 1025.4
20260506171438 62 140 0.9 0.9 0.00 0.00 0.00 73 1025.3
20260506170936 63 114 0.0 0.0 0.00 0.00 0.00 74 1025.5
20260506170431 63 68 0.9 0.9 0.00 0.00 0.00 75 1025.5
20260506165925 62 83 0.9 0.9 0.00 0.00 0.00 76 1025.4
20260506165423 63 202 0.9 1.7 0.00 0.00 0.00 75 1025.5
20260506164918 62 167 2.6 2.6 0.00 0.00 0.00 75 1025.5
20260506164415 61 114 0.0 0.0 0.00 0.00 0.00 77 1025.4
20260506163914 60 329 0.9 0.9 0.00 0.00 0.00 79 1025.6
20260506163408 61 243 2.6 2.6 0.00 0.00 0.00 78 1025.5
20260506162902 60 341 0.0 0.0 0.00 0.00 0.00 79 1025.5
20260506162400 58 253 0.9 0.9 0.00 0.00 0.00 84 1025.4
20260506161852 58 58 0.0 0.0 0.00 0.00 0.00 84 1025.4
20260506161349 57 293 0.0 0.0 0.00 0.00 0.00 85 1025.6
20260506160842 57 344 0.0 0.0 0.00 0.00 0.00 85 1025.5
20260506160339 57 77 0.0 0.0 0.00 0.00 0.00 86 1025.7
20260506155837 57 76 0.0 0.0 0.00 0.00 0.00 86 1025.8
20260506155333 57 75 0.0 0.0 0.00 0.00 0.00 86 1025.5
20260506153451 55 52 0.0 0.0 0.00 0.00 0.00 90 1025.6
20260506152948 54 48 0.0 0.0 0.00 0.00 0.00 92 1025.5
20260506152445 53 15 0.0 0.0 0.00 0.00 0.00 95 1025.7
20260506151943 53 319 0.9 0.9 0.00 0.00 0.00 96 1025.6
20260506151440 52 74 0.0 0.0 0.00 0.00 0.00 97 1025.6
20260506150938 52 48 0.0 0.0 0.00 0.00 0.00 98 1025.7
20260506150433 51 72 0.0 0.0 0.00 0.00 0.00 98 1025.6
20260506145931 51 94 0.0 0.0 0.00 0.00 0.00 98 1025.6
20260506145427 51 99 0.0 0.0 0.00 0.00 0.00 98 1025.7
20260506144925 51 85 0.0 0.0 0.00 0.00 0.00 99 1025.6
20260506144421 51 109 0.0 0.0 0.00 0.00 0.00 99 1025.7
20260506143920 50 83 0.0 0.0 0.00 0.00 0.00 99 1025.7
20260506143416 51 81 0.0 0.0 0.00 0.00 0.00 99 1025.6
20260506142915 51 109 0.0 0.0 0.00 0.00 0.00 99 1025.8
20260506142412 51 80 0.0 0.0 0.00 0.00 0.00 99 1025.6
20260506141910 51 80 0.0 0.0 0.00 0.00 0.00 99 1025.5
20260506141408 50 80 0.0 0.0 0.00 0.00 0.00 99 1025.5
20260506140906 50 79 0.0 0.0 0.00 0.00 0.00 99 1025.6
20260506140403 50 79 0.0 0.0 0.00 0.00 0.00 99 1025.5
20260506135900 50 79 0.0 0.0 0.00 0.00 0.00 99 1025.3
20260506135356 50 79 0.0 0.0 0.00 0.00 0.00 99 1025.3
20260506134852 50 79 0.0 0.0 0.00 0.00 0.00 99 1025.4
20260506134349 50 79 0.0 0.0 0.00 0.00 0.00 99 1025.1
20260506133846 50 78 0.0 0.0 0.00 0.00 0.00 99 1025.1
20260506133343 50 78 0.0 0.0 0.00 0.00 0.00 99 1025.0
20260506132839 50 78 0.0 0.0 0.00 0.00 0.00 99 1024.9
20260506132336 50 77 0.0 0.0 0.00 0.00 0.00 99 1024.9
20260506131835 50 77 0.0 0.0 0.00 0.00 0.00 99 1024.8
20260506131330 50 77 0.0 0.0 0.00 0.00 0.00 99 1024.9
20260506130828 50 77 0.0 0.0 0.00 0.00 0.00 99 1024.7
20260506130324 50 76 0.0 0.0 0.00 0.00 0.00 99 1024.7
20260506125822 50 76 0.0 0.0 0.00 0.00 0.00 99 1024.7
20260506125320 50 77 0.0 0.0 0.00 0.00 0.00 98 1024.7
20260506124819 50 76 0.0 0.0 0.00 0.00 0.00 98 1024.7
20260506124315 50 75 0.0 0.0 0.00 0.00 0.00 98 1024.7
20260506123813 51 76 0.0 0.0 0.00 0.00 0.00 98 1024.6
20260506123311 51 77 0.0 0.0 0.00 0.00 0.00 98 1024.5
20260506122808 51 77 0.0 0.0 0.00 0.00 0.00 98 1024.7
20260506122306 51 77 0.0 0.0 0.00 0.00 0.00 98 1024.4
20260506121803 51 72 0.0 0.0 0.00 0.00 0.00 98 1024.5
20260506121300 51 72 0.0 0.0 0.00 0.00 0.00 98 1024.4
20260506120757 51 72 0.0 0.0 0.00 0.00 0.00 98 1024.4
20260506120255 51 72 0.0 0.0 0.00 0.00 0.00 98 1024.5
20260506115752 51 82 0.0 0.0 0.00 0.00 0.00 98 1024.6
20260506115250 51 82 0.0 0.0 0.00 0.00 0.00 98 1024.3
20260506114747 51 82 0.0 0.0 0.00 0.00 0.00 98 1024.2
20260506114245 51 82 0.0 0.0 0.00 0.00 0.00 98 1024.3
20260506113743 51 82 0.0 0.0 0.00 0.00 0.00 98 1024.3
20260506113241 51 83 0.0 0.0 0.00 0.00 0.00 98 1024.3
20260506112737 51 82 0.0 0.0 0.00 0.00 0.00 98 1024.0
20260506112234 51 82 0.0 0.0 0.00 0.00 0.00 98 1024.3
20260506111731 51 82 0.0 0.0 0.00 0.00 0.00 97 1024.1
20260506111230 51 83 0.0 0.0 0.00 0.00 0.00 97 1024.0
20260506110726 51 82 0.0 0.0 0.00 0.00 0.00 97 1024.1
20260506110224 52 82 0.0 0.0 0.00 0.00 0.00 97 1024.1
20260506105720 52 83 0.0 0.0 0.00 0.00 0.00 97 1024.0
20260506105218 52 83 0.0 0.0 0.00 0.00 0.00 97 1023.8
20260506104716 52 82 0.0 0.0 0.00 0.00 0.00 97 1023.7
20260506104213 52 83 0.0 0.0 0.00 0.00 0.00 97 1023.9
20260506103710 52 82 0.0 0.0 0.00 0.00 0.00 97 1024.0
20260506103206 52 82 0.0 0.0 0.00 0.00 0.00 97 1024.1
20260506102705 52 82 0.0 0.0 0.00 0.00 0.00 97 1023.9
20260506102203 52 82 0.0 0.0 0.00 0.00 0.00 97 1024.0
20260506101659 52 82 0.0 0.0 0.00 0.00 0.00 97 1024.1
20260506101155 52 83 0.0 0.0 0.00 0.00 0.00 97 1024.0
20260506100654 52 83 0.0 0.0 0.00 0.00 0.00 97 1024.0
20260506100151 52 83 0.0 0.0 0.00 0.00 0.00 97 1024.0
20260506095650 52 60 0.0 0.0 0.00 0.00 0.00 97 1024.1
20260506095146 52 13 0.0 0.0 0.00 0.00 0.00 97 1023.9
20260506094644 52 13 0.0 0.0 0.00 0.00 0.00 96 1023.9
20260506094141 52 69 0.0 0.0 0.00 0.00 0.00 96 1024.1
20260506093640 52 69 0.0 0.0 0.00 0.00 0.00 96 1024.0
20260506093137 52 69 0.0 0.0 0.00 0.00 0.00 96 1024.1
20260506092634 52 69 0.0 0.0 0.00 0.00 0.00 96 1024.1
20260506092131 52 69 0.0 0.0 0.00 0.00 0.00 96 1024.1
20260506091629 52 69 0.0 0.0 0.00 0.00 0.00 96 1023.9
20260506091126 52 69 0.0 0.0 0.00 0.00 0.00 96 1023.8
20260506090625 52 85 0.0 0.0 0.00 0.00 0.00 96 1023.7
20260506090120 52 85 0.0 0.0 0.00 0.00 0.00 96 1023.7
20260506085617 52 103 0.0 0.0 0.00 0.00 0.00 96 1023.7
20260506085114 52 114 0.0 0.0 0.00 0.00 0.00 96 1023.8
20260506084610 52 114 0.0 0.0 0.00 0.00 0.00 96 1023.8
20260506084107 52 79 0.0 0.0 0.00 0.00 0.00 96 1023.7
20260506083604 52 79 0.0 0.0 0.00 0.00 0.00 96 1023.9
20260506083102 52 95 0.0 0.0 0.00 0.00 0.00 96 1023.8
20260506082558 53 94 0.0 0.0 0.00 0.00 0.00 96 1024.0
20260506082054 53 93 0.0 0.0 0.00 0.00 0.00 96 1023.9
20260506081552 53 94 0.0 0.0 0.00 0.00 0.00 96 1023.9
20260506081049 53 304 0.0 0.0 0.00 0.00 0.00 96 1024.1
20260506080547 52 5 0.0 0.0 0.00 0.00 0.00 96 1023.9
20260506073027 53 3 0.0 0.0 0.00 0.00 0.00 95 1023.4
20260506072524 53 3 0.0 0.0 0.00 0.00 0.00 95 1023.4
20260506072022 53 3 0.0 0.0 0.00 0.00 0.00 95 1023.7
20260506071520 53 3 0.0 0.0 0.00 0.00 0.00 95 1023.6
20260506071017 53 3 0.0 0.0 0.00 0.00 0.00 95 1023.4